Regional Weather Roundup
Issued by NWS

Home | Current Version | Previous Version | Graphics & Text | Print | Product List | Glossary Off
Versions: 1 2 3 4 5 6 7 8 9 10 11 12 13 14 15 16 17 18 19 20 21 22 23 24 25 26 27 28 29 30 31 32 33 34 35 36 37 38 39 40 41 42 43 44 45 46 47 48 49 50

000
ASUS43 KDTX 191501
RWRMI
MICHIGAN HOURLY REGIONAL WEATHER ROUNDUP
NATIONAL WEATHER SERVICE DETROIT/PONTIAC MI
1000 AM EST THU JAN 19 2017

NOTE: "FAIR" INDICATES FEW OR NO CLOUDS BELOW 12,000 FEET WITH NO
SIGNIFICANT WEATHER AND/OR OBSTRUCTION TO VISIBILITY.

MIZ047>049-052>055-059>063-066>070-074>076-081>083-191600-
SOUTHEAST LOWER MICHIGAN

CITY           SKY/WX    TMP DP  RH WIND       PRES   REMARKS
ADRIAN         CLOUDY    33  32  96 CALM      30.06F
ALMA           CLOUDY    37  33  88 SW7       30.05R FOG     WCI  31
ANN ARBOR      CLOUDY    33  31  92 W6        30.07R WCI  28
BAD AXE        CLOUDY    32  32  99 SW7       30.05S FOG     WCI  26
CARO           CLOUDY   N/A N/A N/A SW8       30.04S HAZE
DETROIT CITY   CLOUDY    34  30  86 SW5       30.09R WCI  30
DETROIT        CLOUDY    35  31  85 SW6       30.09R FOG     WCI  30
FLINT          CLOUDY    34  30  85 W7        30.07R WCI  28
GROSSE ILE     CLOUDY    34  32  92 W6        30.08S FOG     WCI  29
HILLSDALE      CLOUDY    32  32 100 CALM      30.03S FOG
HOWELL         CLOUDY    32  30  92 SW3       30.05F FOG

CITY           SKY/WX    TMP DP  RH WIND       PRES   REMARKS
JACKSON        CLOUDY    32  30  92 SW6       30.05F FOG     WCI  26
LAMBERTVILLE   CLOUDY    35  32  88 W6        30.09S FOG     WCI  30
LANSING        CLOUDY    33  28  81 SW7       30.05F WCI  27
LAPEER         CLOUDY    33  32  94 W6        30.05S WCI  28
MASON          CLOUDY    32  31  95 SW3       30.05F FOG
MONROE         CLOUDY    34  32  94 W5        30.08S FOG     WCI  30
MT. CLEMENS    CLOUDY    34  31  89 W3        30.07R FOG
PONTIAC        CLOUDY    32  28  85 SW6       30.04S WCI  26
PORT HOPE        N/A     34  33  96 VRB3      30.03R
PORT HURON     CLOUDY    32  30  93 CALM      30.09R
TRI CITIES     CLOUDY    35  34  96 SW10      30.05S FOG     WCI  27
MIDLAND        CLOUDY    36  33  88 SW6       30.03S FOG     WCI  31
TROY           CLOUDY    33  30  86 S5        30.08S WCI  29
SAGINAW HB     CLOUDY    36  32  87 SW9       30.05R FOG     WCI  29
$$
MIZ043>046-050>051-056>058-064>065-071>073-077>080-191600-
SOUTHWEST LOWER MICHIGAN

CITY           SKY/WX    TMP DP  RH WIND       PRES   REMARKS
BATTLE CREEK   CLOUDY    34  32  92 VRB5      30.04F WCI  30
BENTON HARBOR  CLOUDY    36  34  92 SE7       30.03S FOG     WCI  30
BIG RAPIDS     CLOUDY    34  32  93 MISG      30.01R FOG
COLDWATER      CLOUDY    34  34 100 S3        30.04S FOG
FREMONT        CLOUDY    36  34  94 SW8       30.02R FOG     WCI  29
HOLLAND        CLOUDY    37  34  89 MISG      30.04S
GRAND RAPIDS   CLOUDY    36  32  85 S7        30.02F FOG     WCI  30
IONIA          CLOUDY    34  32  94 SW6       30.03F FOG     WCI  29
KALAMAZOO      CLOUDY    35  32  88 S5        30.04F FOG     WCI  31
LUDINGTON      CLOUDY    35  35  99 S6        30.00S FOG     WCI  30
MARSHALL       CLOUDY    33  32  96 CALM      30.05R
MOUNT PLEASANT CLOUDY    36  34  92 SW7       30.03R FOG     WCI  30
MUSKEGON       CLOUDY    39  35  86 S7        30.02S WCI  34
SOUTH HAVEN    CLOUDY    35  35  97 S5        30.02S FOG     WCI  31
$$
MIZ016>042-191600-
NORTHERN LOWER MICHIGAN

CITY           SKY/WX    TMP DP  RH WIND       PRES   REMARKS
ALPENA         CLOUDY    35  30  82 SW6       30.01S WCI  30
BEAVER ISLAND  CLOUDY    35  33  95 SW6       29.95F FOG     WCI  30
BELLAIRE       CLOUDY    35  33  94 S7        30.00R FOG     WCI  29
CADILLAC       FOG       32  31  96 SW9       29.97S VSB 1/4 WCI  24
CHARLEVOIX     CLOUDY    36  35  96 S5        30.00S FOG     WCI  32
FRANKFORT      CLOUDY    35  34  98 S8        29.98S FOG     WCI  28
GAYLORD        FOG       34  30  85 SW6       29.96S VSB 1   WCI  29
GRAYLING       FOG       33  33  96 S5        29.99S VSB 1   WCI  29
HARBOR SPRINGS CLOUDY    35  33  93 SW5       29.98S FOG     WCI  31
HOUGHTON LAKE  FOG       33  32  96 SW6       30.00R VSB 1   WCI  28
MANISTEE       CLOUDY    34  33  96 VRB6      30.00R FOG     WCI  29
OSCODA         CLOUDY    35  33  94 S3        30.02R FOG
PELLSTON       CLOUDY    36  31  82 S7        29.98F HAZE    WCI  30
ROGERS CITY    CLOUDY    35  32  88 SW3       30.01S FOG
TRAVERSE CITY  CLOUDY    36  32  85 S6        29.98R FOG     WCI  31
$$
MIZ007>008-015-191600-
EASTERN UPPER MICHIGAN

CITY           SKY/WX    TMP DP  RH WIND       PRES   REMARKS
KINROSS        CLOUDY    36  33  89 S8        29.96S FOG     WCI  30
MACKINAC ISLAN CLOUDY    34  34 100 S7        29.96F FOG     WCI  28
NEWBERRY       CLOUDY    33  32  98 S12       29.92S FOG     WCI  24
S. S. MARIE    CLOUDY    37  33  85 S7        29.96S FOG     WCI  32
MUNISING         N/A     29  28  96 S9        29.89F WCI  20
$$
MIZ004>006-011>014-085-191600-
CENTRAL UPPER MICHIGAN

CITY           SKY/WX    TMP DP  RH WIND       PRES   REMARKS
MANISTIQUE     FOG       30  29  98 S6        29.93F VSB 1/4 WCI  24
ESCANABA       FOG       32  32 100 S5        29.93R VSB 1/2 WCI  27
SAWYER-GWINN   FOG       27  27 100 SW7       29.86F VSB 1/2 WCI  19
$$
MIZ001>003-009>011-084-191600-
WESTERN UPPER MICHIGAN

CITY           SKY/WX    TMP DP  RH WIND       PRES   REMARKS
IRON MOUNTAIN  FOG       32  29  88 S7        29.88S VSB 1   WCI  26
HOUGHTON       FOG       26  24  92 SW5       29.82F VSB<1/4 WCI  20
COPPER HARBOR    N/A     33  28  81 VRB6      29.85R WCI  28
IRONWOOD       CLOUDY    34  33  96 VRB3      29.82F FOG
$$

ABBREVIATIONS USED IN REMARKS
   TC - TEMPERATURE IN CELSIUS
  WCI - WIND CHILL INDEX
   HX - HEAT INDEX
  VSB - VISIBILITY




USA.gov is the U.S. government's official web portal to all federal, state and local government web resources and services.